Location: Newark
(45.8667°N, 9.7333°E)
Time: 03:19:41
(UTC+00:00)

A-11 Canister half - Pass Details

Date: 28 January 2020
Orbit: 1517 x 1683 km, 47.2° (Epoch: 16 February)

Event Time Altitude Azimuth Distance (km) Brightness Sun altitude
Rises 05:52:28 0° 290° (WNW) 4,665 - -9.9°
Exits shadow 05:56:20 10° 276° (W) 3,689 10.3 -9.3°
Reaches altitude 10° 05:56:22 10° 276° (W) 3,681 10.3 -9.3°
Maximum altitude 06:02:50 22° 231° (SW) 2,876 10.2 -8.2°
Drops below altitude 10° 06:09:23 10° 185° (S) 3,716 11.2 -7.1°
Sets 06:13:23 0° 171° (S) 4,720 12.0 -6.4°
